Billings, MT

4:58 PM MDT on October 16, 2017 (GMT -0600)
Billings Logan International

Weather History for KBIL - August, 2013

Change the Weather History Date:

Tuesday, August 20, 2013

  Actual Average Record
Temperature  
Mean Temperature 80 °F 71 °F  
Max Temperature 94 °F 85 °F 98 °F (1971)
Min Temperature 65 °F 57 °F 44 °F (1950)
Degree Days  
Heating Degree Days 0 1  
Month to date heating degree days 0 5  
Since 1 June heating degree days 73 116  
Since 1 July heating degree days 0 20  
Cooling Degree Days 15 7  
Month to date cooling degree days 172 165  
Year to date cooling degree days 593 523  
Since 1 June cooling degree days 566 506  
Growing Degree Days 28 (Base 50)    
Moisture  
Dew Point 37 °F    
Average Humidity 23    
Maximum Humidity 33    
Minimum Humidity 12    
Precipitation  
Precipitation 0.00 in 0.02 in 1.90 in (1965)
Month to date precipitation 0.19 0.49  
Year to date precipitation 8.18 9.79  
Snow  
Snow 0.00 in 0.00 in T in (1990)
Month to date snowfall T 0.0  
Since 1 June snowfall T 0.0  
Since 1 July snowfall T 0.0  
Snow Depth 0.00 in    
Sea Level Pressure  
Sea Level Pressure 29.83 in    
Wind  
Wind Speed 6 mph (WSW)    
Max Wind Speed 17 mph    
Max Gust Speed 20 mph    
Visibility 10 miles    
Events      
T = Trace of Precipitation, MM = Missing Value Source: NWS Daily Summary

Daily Weather History Graph

Daily Weather History Graph

Search for Another Location

Airport or City:

Trip Planner

Search our weather history database for the weather conditions in past years. The results will help you decide how hot, cold, wet, or windy it might be!

Date:

Astronomy

Aug. 20, 2013 Rise Set
Actual Time 6:20 AM MDT 8:13 PM MDT
Civil Twilight 5:48 AM MDT 8:45 PM MDT
Nautical Twilight 5:09 AM MDT 9:24 PM MDT
Astronomical Twilight 4:26 AM MDT 10:06 PM MDT
Moon 7:43 PM MDT (8/20) 5:56 AM MDT (8/20)
Length of Visible Light 14h 56m
Length of Day
13h 52m
Full, 100% of the Moon is Illuminated
Aug 20
Full
Aug 20
Full
Aug 28
Last Quarter
Sep 5
New
Sep 12
First Quarter

Hourly Weather History & Observations

Time (MDT) Temp. Dew Point Humidity Pressure Visibility Wind Dir Wind Speed Gust Speed Precip Events Conditions
12:53 AM 73.9 °F 39.9 °F 29% 29.80 in 10.0 mi Calm Calm - N/A   Clear
1:53 AM 71.1 °F 39.0 °F 31% 29.80 in 10.0 mi SSW 4.6 mph - N/A   Clear
2:53 AM 71.1 °F 34.0 °F 26% 29.80 in 10.0 mi WNW 8.1 mph - N/A   Clear
3:53 AM 72.0 °F 35.1 °F 26% 29.81 in 10.0 mi WNW 3.5 mph - N/A   Partly Cloudy
4:53 AM 73.0 °F 30.9 °F 21% 29.81 in 10.0 mi WNW 13.8 mph - N/A   Partly Cloudy
5:53 AM 71.1 °F 32.0 °F 24% 29.83 in 10.0 mi WNW 12.7 mph - N/A   Partly Cloudy
6:53 AM 69.1 °F 35.1 °F 29% 29.86 in 10.0 mi West 4.6 mph - N/A   Partly Cloudy
7:53 AM 69.1 °F 36.0 °F 30% 29.89 in 10.0 mi SW 6.9 mph - N/A   Clear
8:53 AM 72.0 °F 37.0 °F 28% 29.90 in 10.0 mi SSW 4.6 mph - N/A   Clear
9:53 AM 73.9 °F 43.0 °F 33% 29.90 in 10.0 mi South 4.6 mph - N/A   Clear
10:53 AM 80.1 °F 42.1 °F 26% 29.89 in 10.0 mi SE 5.8 mph - N/A   Clear
11:53 AM 84.0 °F 37.9 °F 19% 29.88 in 10.0 mi ESE 4.6 mph - N/A   Clear
12:53 PM 88.0 °F 37.9 °F 17% 29.86 in 10.0 mi Variable 6.9 mph - N/A   Clear
1:53 PM 88.0 °F 36.0 °F 16% 29.84 in 10.0 mi SE 6.9 mph - N/A   Clear
2:53 PM 90.0 °F 35.1 °F 14% 29.81 in 10.0 mi Variable 4.6 mph - N/A   Clear
3:53 PM 91.0 °F 34.0 °F 13% 29.79 in 10.0 mi SSW 8.1 mph - N/A   Clear
4:53 PM 93.0 °F 33.1 °F 12% 29.77 in 10.0 mi Calm Calm - N/A   Clear
5:53 PM 93.0 °F 33.1 °F 12% 29.77 in 10.0 mi ENE 6.9 mph - N/A   Clear
6:53 PM 91.9 °F 33.1 °F 12% 29.76 in 10.0 mi SE 3.5 mph - N/A   Clear
7:53 PM 88.0 °F 37.0 °F 16% 29.78 in 10.0 mi NE 3.5 mph - N/A   Clear
8:53 PM 86.0 °F 36.0 °F 17% 29.80 in 10.0 mi Calm Calm - N/A   Clear
9:53 PM 78.1 °F 39.0 °F 25% 29.83 in 10.0 mi NW 5.8 mph - N/A   Clear
10:53 PM 73.9 °F 41.0 °F 30% 29.83 in 10.0 mi NNE 10.4 mph - N/A   Clear
11:53 PM 73.9 °F 43.0 °F 33% 29.83 in 10.0 mi North 11.5 mph - N/A   Clear